Wind_Speed
39 38 39 41 41 36 34 33 36 38 39 39 45 49 45 45 43 44 45 45 42 41 42 41 39 37 37
37 37 37 40 41 41 36 31 34 32 38 45 44 44 43 41 45 46 46 43 41 39 39 39 40 39 38
32 37 38 38 40 39 32 31 35 33 40 41 40 41 43 42 41 41 41 41 40 39 39 37 38 37 36
30 28 34 37 32 30 32 32 36 32 37 39 37 39 39 39 39 39 40 42 40 39 38 35 36 35 33
26 32 22 30 26 33 31 37 37 31 35 34 30 33 37 37 39 37 37 35 35 35 36 35 32 30 34
25 19 29 33 31 32 31 23 18 25 27 36 31 37 34 33 33 38 34 37 34 32 32 35 33 35 34
34 32 34 34 36 37 32 27 21 32 33 30 30 32 31 29 35 37 38 40 35 33 33 32 31 32 36
35 37 37 40 38 36 37 37 34 31 28 17 27 27 33 33 35 37 38 37 37 35 33 35 34 32 34
37 39 41 41 40 39 29 20 15 20 28 28 29 29 30 33 36 36 32 22 27 26 27 25 29 30 35
32 36 35 35 35 33 31 13 14 14 30 21 25 24 10 25 26 20 30 26 26 30 28 26 26 25 28
33 32 32 31 31 31 32 30 25 14 38 31 23 22 13 9 16 23 23 26 26 28 29 28 28 26 18
30 28 29 30 33 35 38 37 35 35 40 34 21 20 8 7 8 18 23 27 25 27 27 28 26 28 27
26 28 30 33 34 33 34 33 32 27 21 24 20 19 14 6 8 12 12 12 24 19 14 15 22 21 22
28 31 30 28 29 29 27 25 25 22 23 21 20 18 13 15 18 10 16 4 16 15 10 17 20 17 19
28 28 27 27 28 29 23 24 16 15 18 22 24 17 13 17 8 14 9 6 14 14 14 24 26 22 23
28 27 26 27 27 28 23 20 14 16 15 19 21 13 4 4 13 14 11 9 15 20 19 20 21 26 30
27 28 28 26 27 22 22 19 16 13 15 15 15 7 6 6 10 26 11 13 18 22 22 23 19 24 32
Wind_Direction
301 304 306 305 303 299 294 291 289 293 295 296 298 292 288 286 286 287 284 282 281 279 276 275 274 272 272
298 302 300 302 299 298 296 290 292 292 295 295 294 295 292 294 291 287 286 283 283 279 276 275 271 267 267
292 295 298 298 298 296 298 299 294 295 297 295 295 295 290 288 286 285 283 282 283 280 280 271 268 268 266
287 295 299 302 305 303 302 301 298 298 295 291 292 290 292 291 292 291 289 287 282 280 276 270 263 269 263
300 298 299 309 306 302 298 300 296 296 293 289 293 292 288 287 287 285 284 282 280 276 276 274 269 269 265
303 306 303 302 302 297 297 296 296 299 297 293 294 288 286 284 283 288 282 290 283 278 276 275 269 267 266
300 299 299 298 298 295 291 290 294 303 300 289 292 285 286 283 290 287 290 286 279 283 277 268 263 262 260
300 300 298 300 301 302 302 298 293 293 292 284 296 287 291 288 291 287 286 283 282 279 275 267 263 260 253
305 304 307 306 306 305 300 300 297 298 293 284 291 287 289 288 284 282 285 288 297 292 287 275 259 263 245
315 312 308 306 307 304 299 294 293 294 292 287 286 288 289 282 274 283 290 289 288 286 277 272 267 270 231
312 309 310 310 307 305 298 291 289 286 291 293 288 285 273 289 277 285 280 288 284 281 278 264 256 249 221
311 311 313 312 311 309 306 303 297 290 295 297 284 287 290 300 296 293 289 286 281 273 269 269 249 235 224
315 312 312 309 308 310 312 313 312 305 309 319 326 327 301 283 286 291 302 296 291 289 307 269 215 209 212
311 311 312 314 314 315 312 321 322 319 321 319 315 310 295 284 293 286 288 277 329 355 357 73 101 154 173
317 315 316 317 315 316 313 318 316 314 323 332 335 327 282 285 316 333 330 350 19 16 51 69 57 72 96
316 315 315 316 315 320 322 322 318 318 330 343 345 347 341 311 349 349 359 22 35 45 63 76 68 66 80
316 318 316 316 321 322 325 326 323 330 341 352 353 6 12 10 342 26 18 27 64 56 62 71 81 74 83
Height
683 678 672 667 662 659 655 649 643 637 633 627 623 616 611 606 601 598 595 592 589 585 581 578 575 573 570
678 672 668 661 653 646 642 638 634 629 625 618 611 606 600 596 592 588 584 580 577 574 571 569 567 565 561
674 667 659 654 644 637 632 628 624 619 616 608 603 597 591 586 581 576 572 569 565 563 560 558 556 554 553
668 660 654 645 641 633 621 620 613 609 603 598 593 586 581 576 570 566 562 558 555 552 549 546 545 543 542
662 653 644 638 634 625 617 607 601 601 591 584 582 576 570 566 561 556 551 547 543 541 538 537 534 533 531
655 649 639 633 626 619 610 601 584 592 583 570 574 562 558 554 550 544 539 535 532 530 528 526 526 524 522
651 643 633 627 619 608 600 593 583 580 578 558 561 551 548 542 539 533 530 525 521 519 518 517 516 515 513
645 635 628 619 612 603 593 584 577 573 570 552 549 542 538 532 528 522 518 514 510 508 506 505 505 504 504
636 627 620 613 605 595 586 579 566 562 559 551 541 532 529 522 515 508 507 504 500 498 496 493 493 492 494
625 618 612 605 598 592 583 573 563 553 546 543 534 528 515 510 505 501 499 494 491 487 484 482 481 480 481
620 612 604 597 590 583 576 568 557 547 536 534 525 519 515 504 497 494 490 484 480 476 472 470 470 471 470
615 606 599 591 583 575 566 557 550 541 531 526 518 513 507 500 494 485 481 475 471 465 461 456 457 460 464
611 603 595 586 577 568 559 551 541 533 527 522 517 511 506 500 492 482 476 467 463 457 450 444 446 451 457
608 599 590 581 573 565 556 547 539 529 523 517 511 507 501 495 488 478 472 469 459 453 447 440 441 446 450
604 595 586 578 569 561 553 545 538 528 519 512 506 501 497 494 487 479 472 467 462 456 450 444 448 451 453
601 592 584 575 566 557 551 545 537 528 521 515 508 500 496 495 491 483 476 472 468 462 459 453 460 464 463
598 590 581 573 565 557 550 544 536 529 524 519 514 509 503 500 495 489 484 480 476 472 471 471 473 479 478